Weather History for Drummond Island, MI

Change the Weather History Date:

Thursday, February 21, 2013

  Actual Average (KCIU) Record (KCIU)
Temperature  
Mean Temperature 10 °F -  
Max Temperature 18 °F 32 °F 48 °F (1983)
Min Temperature 1 °F 12 °F -18 °F (1993)
Degree Days  
Heating Degree Days 56    
Moisture  
Dew Point 2 °F    
Average Humidity 77    
Maximum Humidity 94    
Minimum Humidity 65    
Precipitation  
Precipitation 0.00 in - - ()
Sea Level Pressure  
Sea Level Pressure 30.36 in    
Wind  
Wind Speed 5 mph (NNW)    
Max Wind Speed 9 mph    
Max Gust Speed 17 mph    
Visibility 10 miles    
Events      
Averages and records for this station are not official NWS values.
T = Trace of Precipitation, MM = Missing Value Source: NWS Daily Summary

Daily Weather History Graph

Daily Weather History Graph

Search for Another Location

Airport:

Trip Planner

Search our weather history database for the weather conditions in past years. The results will help you decide how hot, cold, wet, or windy it might be!

Date:

Astronomy

Feb. 21, 2013 Rise Set
Actual Time 7:27 AM EST 6:10 PM EST
Civil Twilight 6:57 AM EST 6:40 PM EST
Nautical Twilight 6:22 AM EST 7:15 PM EST
Astronomical Twilight 5:47 AM EST 7:50 PM EST
Moon 2:15 PM EST 4:40 AM EST
Length of Visible Light 11h 43m
Length of Day
10h 43m
Waxing Gibbous, 83% of the Moon is Illuminated
Feb 21
Waxing Gibbous
Feb 25
Full
Mar 4
Last Quarter
Mar 11
New
Mar 19
First Quarter

Hourly Weather History & Observations

Time (EST) Temp. Windchill Dew Point Humidity Pressure Visibility Wind Dir Wind Speed Gust Speed Precip Events Conditions
12:16 AM 2.8 °F -10.7 °F -3.6 °F 74% 30.26 in 10.0 mi NNW 8.1 mph - N/A   Clear
12:36 AM 2.7 °F -10.9 °F -4.4 °F 73% 30.25 in 10.0 mi NNW 8.1 mph 17.3 mph N/A   Clear
12:56 AM 2.3 °F -12.4 °F -4.9 °F 72% 30.26 in 10.0 mi North 9.2 mph - N/A   Clear
1:16 AM 2.1 °F -11.6 °F -4.9 °F 72% 30.27 in 10.0 mi NNW 8.1 mph - N/A   Clear
1:36 AM 1.9 °F -11.8 °F -5.3 °F 72% 30.28 in 10.0 mi NNW 8.1 mph - N/A   Clear
1:55 AM 1.4 °F -13.5 °F -5.8 °F 72% 30.28 in 10.0 mi NNW 9.2 mph - N/A   Clear
2:16 AM 1.4 °F -12.5 °F -5.6 °F 72% 30.28 in 10.0 mi NNW 8.1 mph - N/A   Clear
2:36 AM 1.2 °F -10.1 °F -5.8 °F 72% 30.28 in 10.0 mi NNW 5.8 mph - N/A   Clear
2:56 AM 1.2 °F -6.4 °F -5.4 °F 74% 30.29 in 10.0 mi NW 3.5 mph - N/A   Clear
3:16 AM 1.0 °F -6.7 °F -5.3 °F 75% 30.29 in 10.0 mi NNW 3.5 mph - N/A   Clear
3:36 AM 1.0 °F -8.7 °F -5.1 °F 75% 30.30 in 10.0 mi NW 4.6 mph - N/A   Clear
3:56 AM 1.4 °F -6.2 °F -4.9 °F 75% 30.30 in 10.0 mi NW 3.5 mph - N/A   Clear
4:16 AM 1.2 °F -10.1 °F -4.7 °F 76% 30.30 in 10.0 mi NW 5.8 mph - N/A   Clear
4:36 AM 1.4 °F -8.3 °F -4.9 °F 75% 30.31 in 10.0 mi NW 4.6 mph - N/A   Clear
4:56 AM 1.2 °F -10.1 °F -4.5 °F 77% 30.31 in 10.0 mi NNW 5.8 mph - N/A   Clear
5:16 AM 1.4 °F -8.3 °F -4.5 °F 76% 30.32 in 10.0 mi NW 4.6 mph - N/A   Clear
5:36 AM 1.2 °F -10.1 °F -4.7 °F 76% 30.33 in 10.0 mi NNW 5.8 mph - N/A   Clear
5:56 AM 1.4 °F -8.3 °F -4.9 °F 75% 30.33 in 10.0 mi NW 4.6 mph - N/A   Scattered Clouds
6:16 AM 1.2 °F -8.5 °F -4.9 °F 75% 30.34 in 10.0 mi NNW 4.6 mph - N/A   Scattered Clouds
6:56 AM 1.2 °F -6.4 °F -5.1 °F 75% 30.36 in 10.0 mi NNW 3.5 mph - N/A   Clear
7:16 AM 1.2 °F -6.4 °F -4.9 °F 75% 30.36 in 10.0 mi NNW 3.5 mph - N/A   Scattered Clouds
7:36 AM 1.0 °F -6.7 °F -4.5 °F 77% 30.38 in 10.0 mi NNW 3.5 mph - N/A   Clear
7:56 AM 1.4 °F -8.3 °F -4.4 °F 77% 30.38 in 10.0 mi NNW 4.6 mph - N/A   Clear
8:16 AM 1.4 °F -9.9 °F -4.4 °F 77% 30.39 in 10.0 mi NW 5.8 mph - N/A   Scattered Clouds
8:36 AM 2.1 °F -5.4 °F -4.0 °F 76% 30.40 in 10.0 mi NNW 3.5 mph - N/A   Mostly Cloudy
8:56 AM 2.7 °F -8.4 °F -4.0 °F 74% 30.41 in 10.0 mi NNW 5.8 mph - N/A   Overcast
9:16 AM 2.7 °F -8.4 °F -3.6 °F 75% 30.42 in 10.0 mi NNW 5.8 mph - N/A   Overcast
9:36 AM 3.2 °F -6.2 °F -3.8 °F 73% 30.43 in 10.0 mi NNW 4.6 mph - N/A   Overcast
9:56 AM 3.9 °F -3.4 °F -3.3 °F 72% 30.42 in 10.0 mi NNW 3.5 mph - N/A   Overcast
10:16 AM 4.6 °F -6.0 °F -3.1 °F 70% 30.41 in 10.0 mi North 5.8 mph - N/A   Scattered Clouds
10:36 AM 5.2 °F -5.4 °F -2.2 °F 72% 30.40 in 10.0 mi North 5.8 mph - N/A   Clear
10:56 AM 5.9 °F -7.0 °F -1.3 °F 72% 30.39 in 10.0 mi North 8.1 mph - N/A   Clear
11:16 AM 7.2 °F -3.0 °F -0.2 °F 72% 30.38 in 10.0 mi NNE 5.8 mph - N/A   Clear
11:36 AM 7.7 °F -4.8 °F 0.7 °F 73% 30.39 in 10.0 mi NNW 8.1 mph - N/A   Clear
11:56 AM 9.1 °F -0.7 °F 1.8 °F 72% 30.38 in 10.0 mi North 5.8 mph - N/A   Clear
12:16 PM 9.9 °F -1.1 °F 2.8 °F 73% 30.36 in 10.0 mi North 6.9 mph - N/A   Clear
12:36 PM 11.7 °F 2.3 °F 3.7 °F 71% 30.36 in 10.0 mi NNE 5.8 mph - N/A   Clear
12:56 PM 13.1 °F - 4.8 °F 70% 30.39 in 10.0 mi Calm Calm - N/A   Clear
1:16 PM 13.1 °F 7.1 °F 5.4 °F 71% 30.38 in 10.0 mi North 3.5 mph - N/A   Scattered Clouds
1:36 PM 14.9 °F 9.2 °F 6.1 °F 68% 30.38 in 10.0 mi WNW 3.5 mph - N/A   Mostly Cloudy
1:56 PM 15.1 °F 7.7 °F 6.8 °F 70% 30.39 in 10.0 mi NW 4.6 mph - N/A   Mostly Cloudy
2:16 PM 15.3 °F - 6.8 °F 69% 30.40 in 10.0 mi Calm Calm - N/A   Overcast
2:36 PM 17.1 °F 11.7 °F 7.7 °F 67% 30.41 in 10.0 mi NW 3.5 mph - N/A   Overcast
2:56 PM 17.1 °F 11.7 °F 7.5 °F 66% 30.41 in 10.0 mi NW 3.5 mph - N/A   Mostly Cloudy
3:16 PM 17.8 °F - 7.9 °F 65% 30.41 in 10.0 mi Calm Calm - N/A   Scattered Clouds
3:36 PM 17.1 °F 11.7 °F 8.8 °F 70% 30.40 in 10.0 mi North 3.5 mph - N/A   Scattered Clouds
3:56 PM 17.6 °F 10.7 °F 9.9 °F 72% 30.39 in 10.0 mi North 4.6 mph - N/A   Mostly Cloudy
4:16 PM 18.1 °F 8.9 °F 10.4 °F 72% 30.39 in 10.0 mi North 6.9 mph - N/A   Overcast
4:36 PM 18.3 °F - 9.9 °F 70% 30.38 in 10.0 mi Calm Calm - N/A   Overcast
4:56 PM 18.5 °F 10.4 °F 10.2 °F 70% 30.38 in 10.0 mi NNW 5.8 mph - N/A   Overcast
5:16 PM 18.5 °F 11.7 °F 11.1 °F 73% 30.38 in 10.0 mi North 4.6 mph - N/A   Mostly Cloudy
5:36 PM 18.1 °F 11.3 °F 11.8 °F 76% 30.36 in 10.0 mi North 4.6 mph - N/A   Clear
5:56 PM 17.6 °F 12.3 °F 11.3 °F 76% 30.36 in 10.0 mi NNE 3.5 mph - N/A   Clear
6:16 PM 17.1 °F - 11.1 °F 77% 30.38 in 10.0 mi Calm Calm - N/A   Clear
6:36 PM 16.5 °F - 10.9 °F 79% 30.40 in 10.0 mi Calm Calm - N/A   Clear
6:56 PM 14.9 °F - 10.6 °F 83% 30.39 in 10.0 mi Calm Calm - N/A   Clear
7:16 PM 13.1 °F - 9.7 °F 86% 30.39 in 10.0 mi Calm Calm - N/A   Clear
7:36 PM 12.2 °F - 9.9 °F 90% 30.39 in 10.0 mi Calm Calm - N/A   Clear
7:55 PM 11.5 °F - 8.8 °F 89% 30.38 in 10.0 mi Calm Calm - N/A   Clear
8:16 PM 10.9 °F - 8.6 °F 90% 30.38 in 10.0 mi Calm Calm - N/A   Clear
8:36 PM 10.2 °F - 8.6 °F 93% 30.38 in 10.0 mi Calm Calm - N/A   Clear
8:56 PM 9.5 °F - 7.7 °F 92% 30.36 in 10.0 mi Calm Calm - N/A   Clear
9:16 PM 9.7 °F - 8.2 °F 94% 30.36 in 10.0 mi Calm Calm - N/A   Clear
9:36 PM 10.2 °F - 8.4 °F 92% 30.36 in 10.0 mi Calm Calm - N/A   Clear
9:56 PM 9.7 °F - 8.1 °F 93% 30.35 in 10.0 mi Calm Calm - N/A   Clear
10:16 PM 8.6 °F - 6.8 °F 92% 30.36 in 10.0 mi Calm Calm - N/A   Clear
10:36 PM 8.1 °F - 6.4 °F 93% 30.36 in 10.0 mi Calm Calm - N/A   Clear
10:56 PM 9.3 °F - 7.7 °F 93% 30.36 in 10.0 mi Calm Calm - N/A   Clear
11:16 PM 13.8 °F - 12.4 °F 94% 30.37 in 10.0 mi Calm Calm - N/A   Clear
11:36 PM 14.9 °F - 12.6 °F 90% 30.36 in 10.0 mi Calm Calm - N/A   Clear
11:56 PM 14.9 °F 9.2 °F 12.2 °F 89% 30.36 in 10.0 mi East 3.5 mph - N/A   Clear